"2022-09-02 00:01:00",766462,-7.876848,-6.532705,-86.06271,19.8774,-34.89888,19.95645,-0.8623581,-2.311458,-91.09451,18.66223,0,0.004,7999,0,0,0,15.36757,17.12183,17.10887,16.19951,17.93352,17.94186,16.25078,15.95601,13.91321,19.19669,"NAN","NAN",20.41264,-20.82188,-3.862871,-6.331579,-7.059715,1.020198,24.67855,26.09818,22.63726,34.19325,24.09532,26.03263,27.98801,33.54899,32.6945,0.2045467,0.246062,0.1497972,0.5367074,0.1883087,0.2440828,0.3057057,0.5102158,0.4759759,1.000038,17.03679,13.19657,332,383.6,320.1,-64.88,13.65
"2022-09-02 00:02:00",766463,-7.887575,-6.500822,-85.83398,19.87386,-34.05862,19.95265,-1.048991,-2.311458,-90.82736,18.65871,0,0.004,7999,0,0,0,15.40976,17.11133,17.0953,16.19275,17.93352,17.94186,16.26043,15.94905,13.91667,19.19669,"NAN","NAN",20.41264,-20.80265,-3.867988,-6.329123,-7.069948,1.020153,24.67629,26.10496,22.63726,34.18421,24.08854,26.03941,27.99027,33.54447,32.69224,0.2044829,0.2462671,0.1497972,0.5363316,0.1881227,0.2442873,0.30578,0.510032,0.4758866,1.000076,17.05749,13.19657,332.2,384.4,320.3,-65.5,13.8
"2022-09-02 00:03:00",766464,-7.801613,-6.500828,-85.89105,19.86678,-32.60212,19.95973,-0.7382304,-2.311455,-91.27247,18.65214,0,0.004,7999,0,0,0,15.63029,17.17133,17.15157,16.19296,17.93352,17.94186,16.25715,15.95253,13.91667,19.19669,"NAN","NAN",20.41974,-20.78344,-3.87311,-6.326675,-7.081043,1.020175,24.67855,26.09818,22.63952,34.18647,24.09759,26.03941,27.99479,33.55803,32.68772,0.2045467,0.246062,0.1498546,0.5364256,0.1883707,0.2442873,0.3059287,0.5105845,0.4757081,1.000076,17.06163,13.1846,332.1,385.9,319.8,-67.39,14.08
"2022-09-02 00:04:00",766465,-7.71566,-6.511463,-86.11968,19.88094,-33.38633,19.95265,-1.174006,-2.311452,-91.18331,18.64886,0,0.004,7999,0,0,0,15.66554,17.18314,17.16428,16.19296,17.93352,17.94186,16.2672,15.94557,13.91321,19.19669,"NAN","NAN",20.41619,-20.76074,-3.877379,-6.322591,-7.092138,1.020127,24.67403,26.10496,22.635,34.18647,24.09532,26.03941,27.99253,33.55125,32.68772,0.2044191,0.2462671,0.1497398,0.5364255,0.1883087,0.2442873,0.3058544,0.5103077,0.4757082,1.000076,17.06992,13.19105,332,385.1,319.9,-66.4,13.92
"2022-09-02 00:05:00",766466,-7.726406,-6.522085,-86.29123,19.86678,-34.56269,19.95265,-0.9251607,-2.311452,-90.91617,18.64886,0,0.004,7999,0,0,0,15.59325,17.15315,17.15136,16.18599,17.93352,17.94538,16.26371,15.94905,13.91667,19.19669,"NAN","NAN",20.41974,-20.74063,-3.883348,-6.319317,-7.104076,1.020103,24.67629,26.09818,22.63952,34.19099,24.09306,26.04167,27.99253,33.53995,32.68772,0.2044829,0.246062,0.1498546,0.5366134,0.1882467,0.2443554,0.3058544,0.5098482,0.4757082,1.000064,17.08649,13.2021,331.7,383.9,320.2,-64.95,13.7
"2022-09-02 00:06:00",766467,-7.834063,-6.554116,-86.0051,19.87386,-33.38625,19.94912,-0.8011983,-2.311447,-90.96048,18.68169,0,0.004,7999,0,0,0,15.52444,17.10016,17.10209,16.19296,17.93352,17.94538,16.25714,15.94905,13.92013,19.19669,"NAN","NAN",20.41619,-20.71765,-3.891139,-6.312956,-7.116228,1.020172,24.67177,26.10722,22.63726,34.19099,24.1021,26.04393,27.98801,33.56255,32.68772,0.2043552,0.2463356,0.1497972,0.5366134,0.1884948,0.2444237,0.3057057,0.5107684,0.4757081,1.000064,17.08649,13.18644,332,385.1,320.3,-66.05,13.92
"2022-09-02 00:07:00",766468,-7.791116,-6.586016,-86.29102,19.8597,-32.71404,19.94557,-1.050039,-2.311447,-91.40571,18.70139,0,0.004,7999,0,0,0,15.61639,17.10082,17.11522,16.18947,17.93352,17.94186,16.25366,15.95253,13.91321,19.19669,"NAN","NAN",20.41974,-20.69404,-3.896256,-6.309681,-7.124756,1.020149,24.67403,26.10722,22.63726,34.18873,24.09306,26.03941,27.99253,33.54221,32.68546,0.204419,0.2463356,0.1497972,0.5365195,0.1882467,0.2442874,0.3058544,0.5099401,0.4756189,1.000076,17.11134,13.18368,331.7,385.7,320,-66.96,14.04
"2022-09-02 00:08:00",766469,-7.748116,-6.543514,-86.34811,19.8597,-32.48993,19.94557,-1.299077,-2.311444,-91.5837,18.70467,0,0.004,7999,0,0,0,15.71469,17.14593,17.1645,16.17554,17.92697,17.94186,16.25346,15.94905,13.91667,19.19341,"NAN","NAN",20.41619,-20.67387,-3.902214,-6.303934,-7.134968,1.020245,24.67177,26.09366,22.63726,34.19777,24.09306,26.03941,27.99705,33.55351,32.68546,0.2043551,0.2459253,0.1497972,0.5368955,0.1882467,0.2442873,0.3060031,0.5104006,0.4756189,1.000013,17.11134,13.20048,331.6,386,319.8,-67.34,14.08
"2022-09-02 00:09:00",766470,-7.705101,-6.554111,-86.57675,19.85616,-32.826,19.93496,-1.050425,-2.215131,-92.02882,18.70467,0,0.004,7999,0,0,0,15.74377,17.17286,17.16428,16.18947,17.93703,17.94538,16.25674,15.94905,13.91667,19.19341,"NAN","NAN",20.41264,-20.65021,-3.910731,-6.298185,-7.146034,1.020156,24.67177,26.10496,22.635,34.18421,24.0908,26.03488,27.99705,33.53769,32.68093,0.2043551,0.2462671,0.1497398,0.5363316,0.1881847,0.244151,0.3060031,0.5097562,0.4754406,1.000051,17.11962,13.17676,331.4,385.6,319.4,-67.33,14.01
"2022-09-02 00:10:00",766471,-7.73734,-6.575357,-86.80549,19.8559,-33.83431,19.9385,-1.174845,-2.311441,-91.93978,18.71452,0,0.004,7999,0,0,0,15.74705,17.16936,17.16078,16.17902,17.92697,17.94186,16.25017,15.94537,13.92013,19.19013,"NAN","NAN",20.41264,-20.6266,-3.915848,-6.289179,-7.154562,1.020179,24.67177,26.10044,22.63048,34.19777,24.09306,26.03715,27.98575,33.55351,32.6832,0.2043551,0.2461303,0.149625,0.5368955,0.1882467,0.2442192,0.3056313,0.5104006,0.4755298,1.000025,17.13619,13.19518,331.1,384.6,319.5,-66.21,13.82
"2022-09-02 00:11:00",766472,-7.758809,-6.564714,-87.14843,19.90516,-35.73882,19.95518,-1.112915,-2.311437,-92.29578,18.73752,0,0.004,7999,0,0,0,15.64548,17.17614,17.16778,16.17554,17.92369,17.94186,16.25674,15.93513,13.92704,19.19013,"NAN","NAN",20.41264,-20.60292,-3.922654,-6.285061,-7.164768,1.020224,24.67403,26.09818,22.63952,34.18873,24.09759,26.02584,27.99027,33.54221,32.68093,0.204419,0.246062,0.1498546,0.5365195,0.1883707,0.2438783,0.30578,0.50994,0.4754406,1.000025,17.13619,13.20338,331.1,382.8,319.3,-64.66,13.49
"2022-09-02 00:12:00",766473,-7.88776,-6.607199,-87.03406,19.91426,-35.79484,19.95441,-0.9262874,-2.311437,-92.02865,18.73752,0,0.004,7999,0,0,0,15.29718,17.16214,17.17128,16.16857,17.90731,17.94186,16.25695,15.93861,13.92013,19.14751,"NAN","NAN",20.41619,-20.57931,-3.928624,-6.278512,-7.175001,1.020271,24.67403,26.1027,22.63726,34.19099,24.0908,26.03036,27.99253,33.53995,32.68093,0.204419,0.2461989,0.1497972,0.5366135,0.1881847,0.2440147,0.3058544,0.5098481,0.4754406,1.000038,17.14447,13.19509,331.2,382.7,319.6,-64.42,13.48
"2022-09-02 00:13:00",766474,-8.03823,-6.639086,-86.69088,19.91728,-36.24294,19.97412,-0.800293,-2.311435,-91.58334,18.72438,0,0.004,7999,0,0,0,15.09696,17.13914,17.14457,16.16508,17.90731,17.94186,16.26023,15.94209,13.91667,19.14751,"NAN","NAN",20.41264,-20.55842,-3.935462,-6.269533,-7.183558,1.02025,24.67403,26.09818,22.63726,34.19099,24.09306,26.03715,27.98801,33.55125,32.68093,0.204419,0.246062,0.1497972,0.5366134,0.1882467,0.2442191,0.3057057,0.5103078,0.4754406,1.000013,17.16105,13.17663,331.6,382.4,319.9,-63.83,13.41
"2022-09-02 00:14:00",766475,-8.124246,-6.702858,-86.0046,19.90668,-34.5624,19.96729,-0.7365087,-2.311433,-91.40517,18.72109,0,0.004,7999,0,0,0,15.31993,17.09973,17.09836,16.1616,17.87454,17.94186,16.26023,15.93513,13.92013,19.12782,"NAN","NAN",20.41264,-20.53315,-3.940596,-6.264648,-7.194674,1.020325,24.67629,26.09592,22.63726,34.19551,24.1021,26.03488,27.98575,33.54899,32.67641,0.2044829,0.2459937,0.1497972,0.5368014,0.1884948,0.2441509,0.3056313,0.5102161,0.4752623,1.000025,17.16519,13.1941,332.2,384,320.1,-65.34,13.72
"2022-09-02 00:15:00",766476,-8.08126,-6.681613,-85.54713,19.89733,-34.50639,19.96401,-0.7365087,-2.311433,-90.51472,18.70795,0,0.004,7999,0,0,0,15.53288,17.08681,17.08195,16.15462,17.87126,17.94186,16.25346,15.93512,13.91978,19.12126,"NAN","NAN",20.41264,-20.51129,-3.945712,-6.256461,-7.201496,1.020254,24.67629,26.10496,22.635,34.18647,24.09532,26.04167,27.99027,33.54221,32.67189,0.2044829,0.2462671,0.1497398,0.5364255,0.1883088,0.2443557,0.30578,0.50994,0.4750839,1.000013,17.18589,13.1941,332.6,384.1,320.9,-64.54,13.73
"2022-09-02 00:16:00",766477,-8.059635,-6.681504,-85.2039,19.90314,-35.90676,19.95642,-1.172859,-2.31143,-89.80222,18.70795,0,0.004,7999,0,0,0,15.43131,17.07368,17.04911,16.15114,17.8647,17.94186,16.25674,15.93513,13.91649,19.11798,"NAN","NAN",20.41619,-20.4899,-3.952456,-6.247332,-7.209882,1.020299,24.67629,26.10496,22.63726,34.19099,24.09532,26.03488,27.99479,33.54221,32.67416,0.2044829,0.2462672,0.1497972,0.5366134,0.1883087,0.244151,0.3059287,0.50994,0.4751731,1.000025,17.18589,13.18943,333,382.6,321.6,-62.36,13.46
"2022-09-02 00:17:00",766478,-8.145577,-6.723972,-84.57487,19.91728,-36.13083,19.95996,-0.7995885,-2.31143,-89.31248,18.70819,0,0.004,7999,0,0,0,15.19563,17.01433,17.0097,16.15462,17.85487,17.94186,16.25674,15.92119,13.91995,19.11798,"NAN","NAN",20.41619,-20.4663,-3.958426,-6.239145,-7.220968,1.020298,24.67403,26.09366,22.63952,34.19099,24.09306,26.04393,27.99479,33.54221,32.67416,0.2044191,0.2459253,0.1498546,0.5366134,0.1882467,0.2444237,0.3059288,0.5099401,0.4751731,1.000013,17.18589,13.18483,333.7,382.4,322.1,-61.71,13.42
"2022-09-02 00:18:00",766479,-8.177768,-6.734554,-84.28891,19.90668,-35.1225,19.98673,-0.799942,-2.311428,-88.73363,18.71124,0,0.004,7999,0,0,0,15.19851,17.01148,17.00313,16.15114,17.85487,17.94186,16.25674,15.9212,13.91995,19.11446,"NAN","NAN",20.41264,-20.44688,-3.963507,-6.232541,-7.228579,1.020277,24.67403,26.09818,22.63726,34.19099,24.09759,26.02584,27.99705,33.53769,32.67416,0.204419,0.246062,0.1497972,0.5366135,0.1883707,0.2438784,0.3060031,0.5097562,0.4751731,1.000013,17.19004,13.1977,333.9,383.6,322.7,-62.29,13.64
"2022-09-02 00:19:00",766480,-8.091702,-6.702608,-83.88857,19.91728,-34.89841,19.99254,-0.6758702,-2.311427,-88.51096,18.72438,0,0.004,7999,0,0,0,15.31971,17.00799,17.00313,16.14068,17.85487,17.94186,16.25694,15.92468,13.91978,19.11798,"NAN","NAN",20.41264,-20.42484,-3.968588,-6.222661,-7.236188,1.020352,24.68081,26.09366,22.63952,34.19551,24.09984,26.03488,27.99253,33.56255,32.67416,0.2046106,0.2459254,0.1498546,0.5368014,0.1884328,0.244151,0.3058544,0.5107682,0.4751731,1.000025,17.21075,13.21149,334.4,383.8,323,-62.2,13.68
"2022-09-02 00:20:00",766481,-7.994989,-6.670741,-83.88857,19.89961,-34.45028,19.97889,-0.6758677,-2.311427,-88.24383,18.72767,0,0.004,7999,0,0,0,15.54946,17.00469,16.99984,16.15812,17.85487,17.94186,16.25674,15.91423,13.91995,19.11798,"NAN","NAN",20.41619,-20.40299,-3.977115,-6.212018,-7.243863,1.020281,24.66951,26.1027,22.63952,34.19551,24.09759,26.03941,27.99479,33.55577,32.67189,0.2042913,0.2461988,0.1498546,0.5368015,0.1883707,0.2442876,0.3059287,0.5104925,0.4750839,1.000025,17.21075,13.18754,334.3,384.2,323.3,-62.22,13.75
"2022-09-02 00:21:00",766482,-7.87677,-6.638862,-84.23158,19.97232,-36.74693,19.989,-1.111903,-2.311424,-88.46634,18.74409,0,0.004,7999,0,0,0,15.38852,16.96177,16.95714,16.14765,17.85487,17.94186,16.25674,15.93513,13.91978,19.11798,"NAN","NAN",20.41264,-20.37934,-3.980517,-6.203818,-7.251522,1.020309,24.67403,26.10496,22.64178,34.19551,24.09759,26.03036,27.99027,33.54673,32.67189,0.204419,0.2462671,0.149912,0.5368014,0.1883708,0.2440147,0.30578,0.5101238,0.4750839,1.000038,17.21075,13.19764,334.4,382,323.2,-60.02,13.33
"2022-09-02 00:22:00",766483,-7.994973,-6.649482,-83.94567,19.98546,-38.48344,20.05467,-0.9252701,-2.311424,-88.06564,18.74409,0,0.004,7999,0,0,0,15.09408,16.93266,16.9208,16.15811,17.85487,17.94186,16.25674,15.92468,13.91321,19.11798,"NAN","NAN",20.41264,-20.36098,-3.988192,-6.195632,-7.259197,1.02031,24.67177,26.09592,22.63726,34.19099,24.09532,26.04167,27.99253,33.53317,32.66964,0.2043551,0.2459936,0.1497972,0.5366134,0.1883087,0.2443556,0.3058544,0.5095724,0.4749948,1.000013,17.21075,13.19948,334.7,380.6,323.6,-58.37,13.08
"2022-09-02 00:23:00",766484,-8.123951,-6.755726,-83.54478,19.98546,-37.41885,20.07185,-0.7388611,-2.311408,-87.57526,18.77693,0,0.004,7999,0,0,0,15.05458,16.93266,16.92101,16.14417,17.85487,17.94186,16.26371,15.91771,13.91649,19.11446,"NAN","NAN",20.41264,-20.33922,-3.993328,-6.18502,-7.268612,1.020336,24.67403,26.11174,22.64404,34.19551,24.09984,26.02358,27.99253,33.53769,32.66511,0.204419,0.2464724,0.1499694,0.5368014,0.1884328,0.2438102,0.3058544,0.5097563,0.4748165,1.000025,17.22318,13.18473,335.1,381.8,324.2,-58.88,13.3
"2022-09-02 00:24:00",766485,-8.24221,-6.861994,-83.83009,20.01804,-39.9393,20.07842,-0.8635101,-2.311391,-87.3075,18.78021,0,0.004,7999,0,0,0,14.92336,16.9031,16.87505,16.15463,17.85487,17.94186,16.26043,15.92817,13.91321,19.11446,"NAN","NAN",20.41264,-20.32184,-3.998464,-6.175226,-7.275469,1.020293,24.67403,26.09592,22.63726,34.19777,24.09759,26.0281,27.99253,33.54221,32.66059,0.204419,0.2459936,0.1497972,0.5368955,0.1883708,0.2439464,0.3058544,0.5099401,0.4746382,1.000025,17.23146,13.18563,335,379.3,324.5,-56.12,12.83
"2022-09-02 00:25:00",766486,-8.360416,-7.021328,-82.91516,20.06098,-39.88328,20.08827,-0.9257202,-2.311391,-86.9068,18.78349,0,0.004,7999,0,0,0,14.717,16.86696,16.85535,16.15812,17.85487,17.94186,16.25694,15.91771,13.91321,19.10438,"NAN","NAN",20.41264,-20.30085,-4.005286,-6.166221,-7.283144,1.020269,24.67629,26.11174,22.63726,34.20003,24.09532,26.0281,27.99705,33.55125,32.66511,0.2044829,0.2464724,0.1497972,0.5369894,0.1883087,0.2439464,0.3060031,0.5103087,0.4748165,1.000013,17.2356,13.18195,336.2,379.4,325,-55.78,12.85
"2022-09-02 00:26:00",766487,-8.414116,-7.138146,-82.22913,20.06779,-38.65101,20.09104,-0.9882762,-2.311396,-86.10557,18.78349,0,0.004,7999,0,0,0,14.71391,16.85383,16.8455,16.15463,17.85487,17.94186,16.25674,15.92817,13.91649,19.08118,"NAN","NAN",20.41264,-20.28415,-4.008679,-6.158007,-7.289934,1.020313,24.67629,26.09818,22.635,34.18647,24.09306,26.03488,27.99705,33.57386,32.66511,0.2044829,0.246062,0.1497398,0.5364255,0.1882467,0.244151,0.3060031,0.5112293,0.4748165,1.000013,17.2356,13.18285,336.9,380.6,325.8,-56.16,13.09
"2022-09-02 00:27:00",766488,-8.424856,-7.148762,-82.17194,20.06123,-37.81077,20.06779,-1.112696,-2.311396,-85.83844,18.77693,0,0.004,7999,0,0,0,14.85477,16.84683,16.842,16.14068,17.85136,17.94186,16.26371,15.91771,13.92307,19.08823,"NAN","NAN",20.41264,-20.26666,-4.015501,-6.146545,-7.296755,1.020289,24.67629,26.09592,22.64178,34.18647,24.09532,26.02584,27.99027,33.53769,32.67189,0.2044829,0.2459937,0.149912,0.5364256,0.1883087,0.2438783,0.30578,0.5097562,0.4750839,1.000038,17.2356,13.1939,336.9,381.3,326,-56.64,13.22
"2022-09-02 00:28:00",766489,-8.371157,-7.1063,-81.60017,20.04784,-37.25064,20.07488,-1.112841,-2.311397,-85.66041,18.73752,0,0.004,7999,0,0,0,14.89388,16.84355,16.83851,16.17205,17.84785,17.93835,16.26371,15.93165,13.91978,19.05847,"NAN","NAN",20.41264,-20.25017,-4.019787,-6.135118,-7.305323,1.020334,24.67629,26.09592,22.635,34.19325,24.09532,26.03036,27.99253,33.55577,32.66511,0.2044829,0.2459936,0.1497398,0.5367074,0.1883088,0.2440146,0.3058544,0.5104923,0.4748165,1.000051,17.2356,13.18284,337.4,381.9,325.9,-57.27,13.33
"2022-09-02 00:29:00",766490,-8.295997,-7.000129,-81.48586,20.0582,-37.30668,20.07134,-1.112981,-2.311399,-85.17073,18.72438,0,0.004,7999,0,0,0,14.88752,16.85383,16.8617,16.17554,17.85136,17.93484,16.25674,15.91771,13.91649,19.0383,"NAN","NAN",20.41264,-20.23454,-4.025778,-6.125329,-7.31048,1.020356,24.66951,26.09366,22.635,34.19099,24.0908,26.03263,27.99253,33.53995,32.66511,0.2042913,0.2459255,0.1497398,0.5366134,0.1881847,0.2440828,0.3058544,0.5098482,0.4748165,1.000064,17.2356,13.19664,337.6,381.9,326.4,-56.81,13.32
"2022-09-02 00:30:00",766491,-8.242265,-6.947018,-81.14277,20.0347,-36.35441,20.07817,-0.9263509,-2.311399,-84.9036,18.71781,0,0.004,7999,0,0,0,14.84146,16.88952,16.9138,16.15114,17.85136,17.94186,16.26023,15.9212,13.91978,19.02518,"NAN","NAN",20.41264,-20.21881,-4.030042,-6.114686,-7.319008,1.020309,24.67403,26.09818,22.635,34.19099,24.1021,26.03488,27.99479,33.55803,32.66511,0.204419,0.246062,0.1497398,0.5366134,0.1884948,0.2441509,0.3059287,0.5105845,0.4748165,1.000025,17.2356,13.19757,337.8,382.9,326.6,-57.57,13.5
"2022-09-02 00:31:00",766492,-8.145432,-6.883183,-80.45666,19.99809,-34.786,20.0678,-0.8643494,-2.311402,-84.32491,18.70467,0,0.004,7999,0,0,0,15.15941,16.92566,16.9208,16.14437,17.84785,17.94186,16.26351,15.92468,13.91667,19.02518,"NAN","NAN",20.4091,-20.20184,-4.035941,-6.103937,-7.325702,1.02033,24.66951,26.09592,22.63726,34.18647,24.09984,26.0281,27.99253,33.53995,32.66285,0.2042913,0.2459936,0.1497972,0.5364255,0.1884328,0.2439464,0.3058544,0.5098482,0.4747273,1.000038,17.2356,13.19479,338.3,384.4,327.1,-58.54,13.79
"2022-09-02 00:32:00",766493,-7.919744,-6.76632,-80.39948,19.99859,-34.4499,20.07488,-1.29982,-2.070631,-84.10229,18.70467,0,0.004,7999,0,0,0,15.41493,16.92587,16.9243,16.15463,17.84457,17.94186,16.26023,15.92817,13.91321,19.02518,"NAN","NAN",20.41264,-20.1896,-4.041057,-6.093294,-7.331671,1.020353,24.66951,26.09592,22.63726,34.18647,24.1021,26.02132,27.99479,33.53769,32.66285,0.2042913,0.2459936,0.1497972,0.5364255,0.1884948,0.2437422,0.3059287,0.5097562,0.4747273,1.000038,17.2356,13.18281,338.4,384.7,327.3,-58.59,13.86
"2022-09-02 00:33:00",766494,-7.801569,-6.713234,-80.22796,20.02107,-35.73829,20.07134,-1.113274,-2.022477,-83.30093,18.70467,0,0.004,7999,0,0,0,15.39199,16.92916,16.9243,16.13064,17.84106,17.94186,16.25674,15.90378,13.92324,19.03223,"NAN","NAN",20.41264,-20.17398,-4.04705,-6.081867,-7.338535,1.020331,24.67177,26.09592,22.63952,34.19099,24.09532,26.0281,27.99253,33.53091,32.66511,0.2043551,0.2459936,0.1498546,0.5366134,0.1883087,0.2439465,0.3058544,0.5094806,0.4748165,1.000013,17.26045,13.18465,338.7,383.4,328.1,-56.41,13.61
"2022-09-02 00:34:00",766495,-7.737152,-6.628308,-79.77054,20.05363,-36.13042,20.0774,-0.9267324,-2.022478,-82.94479,18.70467,0,0.004,7999,0,0,0,15.2542,16.90616,16.8976,16.15114,17.84503,17.93835,16.25674,15.91423,13.91649,19.0287,"NAN","NAN",20.41264,-20.16361,-4.052189,-6.069622,-7.346251,1.020382,24.67177,26.09592,22.64178,34.19099,24.09759,26.03941,27.99479,33.55351,32.66285,0.2043551,0.2459937,0.1499121,0.5366134,0.1883707,0.2442873,0.3059287,0.5104006,0.4747273,1.000025,17.26045,13.18925,339.3,383.1,328.5,-55.72,13.54
"2022-09-02 00:35:00",766496,-7.812374,-6.63893,-79.5418,20.06425,-37.08269,20.11351,-0.6778895,-2.022478,-82.54409,18.70467,0,0.004,7999,0,0,0,15.18907,16.85668,16.85142,16.14416,17.83474,17.93835,16.25674,15.92468,13.9229,19.01813,"NAN","NAN",20.41264,-20.15049,-4.057306,-6.057342,-7.350515,1.020359,24.67177,26.09592,22.63726,34.19551,24.09759,26.03036,27.98801,33.53317,32.65833,0.2043551,0.2459936,0.1497972,0.5368014,0.1883707,0.2440146,0.3057057,0.5095725,0.4745491,1.000038,17.26045,13.18649,339.6,382.3,328.9,-54.64,13.4
"2022-09-02 00:36:00",766497,-7.930559,-6.734511,-79.25594,20.06425,-37.41882,20.12389,-0.9268799,-2.02248,-82.05442,18.70139,0,0.004,7999,0,0,0,14.96614,16.85033,16.842,16.1374,17.82444,17.94186,16.25674,15.9212,13.91962,19.02518,"NAN","NAN",20.41264,-20.13731,-4.061555,-6.04586,-7.356459,1.020379,24.67403,26.09366,22.635,34.19777,24.09532,26.0281,27.99479,33.54221,32.65607,0.204419,0.2459253,0.1497398,0.5368955,0.1883087,0.2439464,0.3059287,0.50994,0.4744601,1.000076,17.26045,13.19477,339.9,382.1,329.3,-53.91,13.35
"2022-09-02 00:37:00",766498,-8.059506,-6.798241,-78.56974,20.06071,-36.24247,20.11024,-1.23793,-2.02248,-81.78728,18.68825,0,0.004,7999,0,0,0,14.9301,16.84355,16.83194,16.13412,17.81178,17.94186,16.2672,15.9212,13.91649,19.03223,"NAN","NAN",20.41264,-20.12594,-4.066672,-6.032761,-7.363281,1.020402,24.67177,26.08914,22.63726,34.18873,24.09532,26.02584,27.99479,33.54899,32.65155,0.2043551,0.2457887,0.1497972,0.5365195,0.1883088,0.2438783,0.3059287,0.5102166,0.4742818,1.000064,17.26045,13.18556,340.5,383.2,329.5,-54.88,13.56
"2022-09-02 00:38:00",766499,-8.102551,-6.840782,-78.62695,20.06426,-36.18647,20.07688,-1.611244,-2.02248,-81.87635,18.68497,0,0.004,7999,0,0,0,15.02163,16.85383,16.842,16.14437,17.79845,17.93134,16.25674,15.91423,13.91995,19.02542,"NAN","NAN",20.41264,-20.11743,-4.068424,-6.021369,-7.369334,1.02038,24.66725,26.10044,22.63726,34.19551,24.09532,26.02358,27.99479,33.53317,32.65607,0.2042275,0.2461305,0.1497972,0.5368014,0.1883088,0.2438102,0.3059287,0.5095724,0.47446,1.000064,17.26045,13.18095,340.5,383,329.4,-54.85,13.53
"2022-09-02 00:39:00",766500,-8.102674,-6.787773,-78.45542,20.06425,-36.80266,20.1067,-1.051407,-2.022481,-81.3421,18.67513,0,0.004,7999,0,0,0,14.99215,16.85033,16.8475,16.15135,17.77572,17.93484,16.26023,15.91771,13.91649,19.02165,"NAN","NAN",20.41264,-20.10542,-4.075292,-6.009157,-7.377092,1.020337,24.67403,26.10044,22.64178,34.19099,24.08628,26.0281,27.99253,33.53995,32.65833,0.204419,0.2461304,0.149912,0.5366134,0.1880607,0.2439465,0.3058544,0.5098481,0.4745492,1.000076,17.26045,13.18094,340.7,382.6,329.9,-53.98,13.45
"2022-09-02 00:40:00",766501,-8.091928,-6.766529,-78.34106,20.0678,-36.07444,20.07714,-1.175827,-1.926172,-81.11949,18.63901,0,0.004,7999,0,0,0,15.09716,16.87003,16.91095,16.13126,17.76215,17.93134,16.25674,15.90726,13.91978,19.01837,"NAN","NAN",20.4091,-20.09667,-4.079556,-5.998514,-7.382209,1.020337,24.67177,26.09366,22.63952,34.18647,24.0908,26.03263,27.99705,33.53995,32.66059,0.2043551,0.2459253,0.1498546,0.5364255,0.1881847,0.2440829,0.3060031,0.5098481,0.4746383,1.000089,17.26497,13.18463,340.8,383.1,329.9,-54.53,13.55
"2022-09-02 00:41:00",766502,-8.016652,-6.755862,-77.88363,20.04456,-35.73836,20.06426,-1.113708,-1.829864,-80.89691,18.6322,0,0.004,7999,0,0,0,15.10351,16.85033,16.88098,16.11466,17.76543,17.93835,16.26371,15.91075,13.91649,19.00525,"NAN","NAN",20.41264,-20.0869,-4.08464,-5.98455,-7.388973,1.020381,24.66951,26.09592,22.63726,34.20003,24.09984,26.02584,27.99253,33.53543,32.65607,0.2042914,0.2459936,0.1497972,0.5369894,0.1884328,0.2438783,0.3058544,0.5096643,0.4744601,1.000076,17.28756,13.19567,341.1,383.4,330.1,-54.55,13.6
"2022-09-02 00:42:00",766503,-8.016642,-6.766475,-77.19743,20.0145,-35.57032,20.06071,-1.051498,-1.733556,-80.09551,18.62235,0,0.004,7999,0,0,0,15.12664,16.85033,16.83151,16.09807,17.77267,17.93835,16.25674,15.90726,13.91978,18.98885,"NAN","NAN",20.41264,-20.07816,-4.088051,-5.973907,-7.394089,1.02038,24.67403,26.0914,22.63726,34.19099,24.09759,26.02358,27.99253,33.53091,32.65833,0.2044191,0.245857,0.1497972,0.5366134,0.1883707,0.2438102,0.3058544,0.5094806,0.4745492,1.000051,17.28756,13.18646,341.7,383.5,330.9,-53.94,13.63
"2022-09-02 00:43:00",766504,-7.995165,-6.745244,-76.33969,20.03445,-35.40227,20.06071,-1.175964,-1.733556,-79.11604,18.62235,0,0.004,7999,0,0,0,15.06421,16.84683,16.83851,16.08496,17.76916,17.93484,16.25674,15.90378,13.91649,18.98557,"NAN","NAN",20.41264,-20.0686,-4.090621,-5.960825,-7.40008,1.020382,24.66725,26.09366,22.63952,34.19099,24.09532,26.03036,27.99027,33.54221,32.65833,0.2042275,0.2459253,0.1498546,0.5366135,0.1883087,0.2440146,0.30578,0.5099401,0.4745491,1.000038,17.28756,13.18922,342.6,383.7,331.8,-53.13,13.66
"2022-09-02 00:44:00",766505,-7.930719,-6.724026,-75.93942,20.05086,-35.06618,20.06426,-1.176008,-1.733556,-78.04752,18.61273,0,0.004,7999,0,0,0,15.11373,16.85033,16.84507,16.07226,17.76215,17.93134,16.26023,15.92468,13.9196,18.96615,"NAN","NAN",20.41264,-20.05817,-4.094045,-5.949381,-7.406924,1.020385,24.67629,26.09366,22.64178,34.19551,24.09532,26.02358,27.99027,33.53317,32.66059,0.204483,0.2459253,0.149912,0.5368014,0.1883087,0.2438102,0.30578,0.5095724,0.4746382,1.000064,17.28756,13.18554,343.1,384.1,332.8,-52.43,13.73
"2022-09-02 00:45:00",766506,-7.941465,-6.628424,-75.25322,20.06425,-35.96244,20.08698,-1.424848,-1.733556,-77.33517,18.61906,0,0.004,7999,0,0,0,15.22164,16.88973,16.90724,16.062,17.76566,17.93134,16.25674,15.91771,13.91304,18.94926,"NAN","NAN",20.41264,-20.0503,-4.099161,-5.937101,-7.410335,1.020385,24.67177,26.1027,22.6463,34.19325,24.09759,26.03263,27.99705,33.53769,32.65833,0.2043552,0.2461989,0.1500268,0.5367074,0.1883707,0.2440828,0.3060031,0.5097562,0.4745492,1.000076,17.28756,13.18001,343.9,383.3,333.6,-51.02,13.59